,,PA_Meas_PMT16A,,PR_Meas_QMR101_102,,RH_Meas_QMH101,,SR_Meas_QMS101,,TA_Meas_QMH101,,GenWind,,GenWind,
time,status,PA,status,PR,status,RH,status,SR,status,TA,status,DirAvg,status,SpdAvg,
2016-04-01, 07:30:04,VALID,918.363,VALID,0,INVALID,109.693,VALID,117.863,VALID,21.5559,VALID,161,VALID,0,
2016-04-01, 07:31:04,VALID,918.415,VALID,0,INVALID,109.754,VALID,110.557,VALID,21.5754,VALID,164,VALID,0,
2016-04-01, 07:32:04,VALID,918.418,VALID,0,INVALID,109.785,VALID,108.301,VALID,21.6144,VALID,179,VALID,0,
2016-04-01, 07:34:04,VALID,918.404,VALID,0,INVALID,109.808,VALID,115.822,VALID,21.7103,VALID,151,VALID,0,
2016-04-01, 07:35:04,VALID,918.414,VALID,0,INVALID,109.823,VALID,118.615,VALID,21.7688,VALID,156,VALID,0,
2016-04-01, 07:36:04,VALID,918.418,VALID,0,INVALID,109.846,VALID,124.095,VALID,21.7883,VALID,162,VALID,0,
2016-04-01, 07:37:04,VALID,918.448,VALID,0,INVALID,109.838,VALID,130.434,VALID,21.7688,VALID,148,VALID,0,
2016-04-01, 07:38:04,VALID,918.419,VALID,0,INVALID,109.655,VALID,135.698,VALID,21.8274,VALID,139,VALID,0,
2016-04-01, 07:39:04,VALID,918.437,VALID,0,INVALID,109.541,VALID,134.194,VALID,21.8664,VALID,139,VALID,0,
2016-04-01, 07:40:04,VALID,918.423,VALID,0,INVALID,109.442,VALID,135.591,VALID,21.9249,VALID,139,VALID,0,
2016-04-01, 07:41:04,VALID,918.416,VALID,0,INVALID,109.335,VALID,166.641,VALID,21.964,VALID,139,VALID,0,
2016-04-01, 07:42:04,VALID,918.413,VALID,0,INVALID,109.228,VALID,204.138,VALID,22.0615,VALID,133,VALID,0,
2016-04-01, 07:43:04,VALID,918.443,VALID,0,INVALID,109.167,VALID,211.122,VALID,22.1786,VALID,133,VALID,0,
2016-04-01, 07:44:04,VALID,918.452,VALID,0,INVALID,109.106,VALID,220.577,VALID,22.3152,VALID,133,VALID,0,
2016-04-01, 07:45:04,VALID,918.456,VALID,0,VALID,104,VALID,226.593,VALID,22.4128,VALID,109,VALID,0,
2016-04-01, 07:46:04,VALID,918.479,VALID,0,VALID,104,VALID,230.891,VALID,22.5103,VALID,119,VALID,0,
2016-04-01, 07:47:04,VALID,918.469,VALID,0,VALID,104,VALID,231.858,VALID,22.5299,VALID,119,VALID,0,
2016-04-01, 07:48:04,VALID,918.455,VALID,0,VALID,104,VALID,245.073,VALID,22.6257,VALID,105,VALID,0,
2016-04-01, 07:49:04,VALID,918.467,VALID,0,VALID,104,VALID,245.718,VALID,22.7445,VALID,104,VALID,0,
2016-04-01, 07:50:04,VALID,918.459,VALID,0,VALID,104,VALID,249.156,VALID,22.9219,VALID,101,VALID,0,
2016-04-01, 07:51:04,VALID,918.412,VALID,0,VALID,104,VALID,227.775,VALID,23.0586,VALID,101,VALID,0,
2016-04-01, 07:52:04,VALID,918.439,VALID,0,VALID,103.816,VALID,190.708,VALID,23.1349,VALID,101,VALID,0,
2016-04-01, 07:53:04,VALID,918.43,VALID,0,VALID,103.983,VALID,166.104,VALID,23.2147,VALID,101,VALID,0,
2016-04-01, 07:54:04,VALID,918.434,VALID,0,VALID,103.953,VALID,162.021,VALID,23.3106,VALID,101,VALID,0,
2016-04-01, 07:55:04,VALID,918.368,VALID,0,VALID,102.954,VALID,204.568,VALID,23.4277,VALID,101,VALID,0,
2016-04-01, 07:56:04,VALID,918.416,VALID,0,VALID,102.1,VALID,275.372,VALID,23.5058,VALID,111,VALID,0,
2016-04-01, 07:57:04,VALID,918.398,VALID,0,VALID,101.361,VALID,239.701,VALID,23.5058,VALID,146,VALID,0,
2016-04-01, 07:58:04,VALID,918.392,VALID,0,VALID,101.62,VALID,259.148,VALID,23.543,VALID,146,VALID,0,
2016-04-01, 07:59:04,VALID,918.396,VALID,0,VALID,101.33,VALID,290.951,VALID,23.7187,VALID,146,VALID,0,
2016-04-01, 08:00:04,VALID,918.398,VALID,0,VALID,99.882,VALID,288.372,VALID,23.8944,VALID,146,VALID,0,
2016-04-01, 08:01:04,VALID,918.38,VALID,0,VALID,98.891,VALID,294.174,VALID,24.0506,VALID,146,VALID,0,
2016-04-01, 08:02:04,VALID,918.373,VALID,0,VALID,89.6056,VALID,294.174,VALID,24.2477,VALID,146,VALID,0,
2016-04-01, 08:03:04,VALID,918.391,VALID,0,VALID,89.4303,VALID,244.751,VALID,24.402,VALID,146,VALID,0,
2016-04-01, 08:04:04,VALID,918.418,VALID,0,VALID,82.0889,VALID,269.892,VALID,24.5192,VALID,146,VALID,0,
2016-04-01, 08:05:04,VALID,918.435,VALID,0,VALID,82.4015,VALID,286.546,VALID,24.5973,VALID,146,VALID,0,
2016-04-01, 08:06:04,VALID,918.467,VALID,0,VALID,81.4791,VALID,296.323,VALID,24.7749,VALID,146,VALID,0,
2016-04-01, 08:07:04,VALID,918.525,VALID,0,VALID,80.7396,VALID,310.183,VALID,24.8316,VALID,146,VALID,0,
2016-04-01, 08:08:04,VALID,918.486,VALID,0,VALID,81.7001,VALID,301.05,VALID,24.9097,VALID,143,VALID,0,
2016-04-01, 08:09:04,VALID,918.479,VALID,0,VALID,80.2669,VALID,272.578,VALID,25.1245,VALID,128,VALID,0,
2016-04-01, 08:10:04,VALID,918.457,VALID,0,VALID,79.1692,VALID,293.422,VALID,25.2417,VALID,95,VALID,0,
2016-04-01, 08:11:04,VALID,918.459,VALID,0,VALID,78.727,VALID,311.472,VALID,25.1636,VALID,89,VALID,0,
2016-04-01, 08:12:04,VALID,918.432,VALID,0,VALID,79.3826,VALID,317.274,VALID,24.9078,VALID,99,VALID,0,
2016-04-01, 08:13:04,VALID,918.446,VALID,0,VALID,80.6329,VALID,301.265,VALID,24.7926,VALID,105,VALID,0,
2016-04-01, 08:14:04,VALID,918.437,VALID,0,VALID,81.5553,VALID,320.927,VALID,24.7926,VALID,86,VALID,0,
2016-04-01, 08:15:04,VALID,918.471,VALID,0,VALID,85.8549,VALID,311.687,VALID,24.734,VALID,86,VALID,0,
2016-04-01, 08:16:04,VALID,918.437,VALID,0,VALID,91.8469,VALID,357.027,VALID,24.6949,VALID,79,VALID,0,
2016-04-01, 08:17:04,VALID,918.48,VALID,0,VALID,86.8307,VALID,355.2,VALID,24.693,VALID,3,VALID,0,
2016-04-01, 08:18:04,VALID,918.492,VALID,0,VALID,85.5271,VALID,364.655,VALID,24.5368,VALID,277,VALID,0,
2016-04-01, 08:19:04,VALID,918.521,VALID,0,VALID,89.0567,VALID,377.118,VALID,24.4392,VALID,277,VALID,0,
2016-04-01, 08:20:04,VALID,918.517,VALID,0,VALID,86.785,VALID,384.317,VALID,24.4197,VALID,277,VALID,0,
2016-04-01, 08:21:04,VALID,918.51,VALID,0,VALID,88.3249,VALID,405.483,VALID,24.4783,VALID,277,VALID,0,
2016-04-01, 08:22:04,VALID,918.512,VALID,0,VALID,87.3339,VALID,406.772,VALID,24.6345,VALID,277,VALID,0,
2016-04-01, 08:23:04,VALID,918.499,VALID,0,VALID,84.1015,VALID,419.773,VALID,24.7321,VALID,277,VALID,0,
2016-04-01, 08:24:04,VALID,918.491,VALID,0,VALID,83.1181,VALID,450.608,VALID,24.8297,VALID,277,VALID,0,
2016-04-01, 08:25:04,VALID,918.51,VALID,0,VALID,82.1347,VALID,457.807,VALID,24.7907,VALID,277,VALID,0,
2016-04-01, 08:26:04,VALID,918.502,VALID,0,VALID,83.9643,VALID,414.293,VALID,24.8102,VALID,277,VALID,0,
2016-04-01, 08:27:04,VALID,918.533,VALID,0,VALID,81.0674,VALID,404.838,VALID,25.0269,VALID,289,VALID,0,
2016-04-01, 08:28:04,VALID,918.534,VALID,0,VALID,81.7916,VALID,405.053,VALID,24.9878,VALID,319,VALID,0,
2016-04-01, 08:29:04,VALID,918.498,VALID,0,VALID,82.5311,VALID,339.407,VALID,25.0855,VALID,320,VALID,0,
2016-04-01, 08:30:04,VALID,918.518,VALID,0,VALID,80.9683,VALID,256.355,VALID,25.2203,VALID,320,VALID,0,
2016-04-01, 08:31:04,VALID,918.505,VALID,0,VALID,80.0382,VALID,250.553,VALID,25.2593,VALID,319,VALID,0,
2016-04-01, 08:32:04,VALID,918.475,VALID,0,VALID,79.5275,VALID,254.85,VALID,25.2398,VALID,22,VALID,0,
2016-04-01, 08:33:04,VALID,918.458,VALID,0,VALID,80.8768,VALID,263.553,VALID,25.2984,VALID,20,VALID,0,
2016-04-01, 08:34:04,VALID,918.462,VALID,0,VALID,80.488,VALID,270.429,VALID,25.3374,VALID,57,VALID,0,
2016-04-01, 08:35:04,VALID,918.432,VALID,0,VALID,79.8477,VALID,262.049,VALID,25.3179,VALID,19,VALID,0,
2016-04-01, 08:36:04,VALID,918.442,VALID,0,VALID,80.4728,VALID,252.379,VALID,25.2203,VALID,37,VALID,0,
2016-04-01, 08:37:04,VALID,918.461,VALID,0,VALID,80.3051,VALID,254.421,VALID,25.1031,VALID,49,VALID,0,
2016-04-01, 08:38:04,VALID,918.456,VALID,0,VALID,80.2593,VALID,246.577,VALID,24.9469,VALID,9,VALID,0,
2016-04-01, 08:39:04,VALID,918.446,VALID,0,VALID,82.9351,VALID,248.404,VALID,24.7516,VALID,11,VALID,0,
2016-04-01, 08:40:04,VALID,918.431,VALID,0,VALID,82.8665,VALID,246.792,VALID,24.5954,VALID,19,VALID,0,
2016-04-01, 08:41:04,VALID,918.41,VALID,0,VALID,84.1778,VALID,240.883,VALID,24.535,VALID,23,VALID,0,
2016-04-01, 08:42:04,VALID,918.383,VALID,0,VALID,80.2288,VALID,237.23,VALID,24.4978,VALID,50,VALID,0,
2016-04-01, 08:43:04,VALID,918.355,VALID,0,VALID,83.9109,VALID,235.189,VALID,24.4587,VALID,38,VALID,0,
2016-04-01, 08:44:04,VALID,918.375,VALID,0,VALID,80.5795,VALID,233.362,VALID,24.4178,VALID,50,VALID,0,
2016-04-01, 08:45:04,VALID,918.363,VALID,0,VALID,82.5463,VALID,231.751,VALID,24.4197,VALID,56,VALID,0,
2016-04-01, 08:46:04,VALID,918.361,VALID,0,VALID,86.137,VALID,230.139,VALID,24.4002,VALID,56,VALID,0,
2016-04-01, 08:47:04,VALID,918.387,VALID,0,VALID,85.1383,VALID,229.817,VALID,24.4002,VALID,56,VALID,0,
2016-04-01, 08:48:04,VALID,918.366,VALID,0,VALID,83.3316,VALID,230.246,VALID,24.3806,VALID,49,VALID,0,
2016-04-01, 08:49:04,VALID,918.365,VALID,0,VALID,83.4993,VALID,231.106,VALID,24.3788,VALID,49,VALID,0,
2016-04-01, 08:50:04,VALID,918.364,VALID,0,VALID,84.9782,VALID,232.61,VALID,24.4783,VALID,50,VALID,0,
2016-04-01, 08:51:04,VALID,918.378,VALID,0,VALID,82.2109,VALID,235.189,VALID,24.4002,VALID,77,VALID,0,
2016-04-01, 08:52:04,VALID,918.339,VALID,0,VALID,82.6226,VALID,239.164,VALID,24.3202,VALID,77,VALID,0,
2016-04-01, 08:53:04,VALID,918.322,VALID,0,VALID,83.7432,VALID,244.214,VALID,24.3593,VALID,65,VALID,0,
2016-04-01, 08:54:04,VALID,918.303,VALID,0,VALID,84.6428,VALID,250.445,VALID,24.3202,VALID,56,VALID,0,
2016-04-01, 08:55:04,VALID,918.281,VALID,0,VALID,84.4598,VALID,257.429,VALID,24.283,VALID,52,VALID,0,
2016-04-01, 08:56:04,VALID,918.261,VALID,0,VALID,89.3693,VALID,261.082,VALID,24.2617,VALID,53,VALID,0,
2016-04-01, 08:57:04,VALID,918.299,VALID,0,VALID,86.8383,VALID,260.975,VALID,24.3202,VALID,53,VALID,0,
2016-04-01, 08:58:04,VALID,918.272,VALID,0,VALID,85.4356,VALID,261.082,VALID,24.4569,VALID,53,VALID,0,
2016-04-01, 08:59:04,VALID,918.295,VALID,0,VALID,83.6365,VALID,261.189,VALID,24.654,VALID,53,VALID,0,
2016-04-01, 09:00:04,VALID,918.305,VALID,0,VALID,83.8881,VALID,261.834,VALID,24.8102,VALID,53,VALID,0,
2016-04-01, 09:01:04,VALID,918.304,VALID,0,VALID,81.258,VALID,263.338,VALID,24.9059,VALID,53,VALID,0,
2016-04-01, 09:02:04,VALID,918.321,VALID,0,VALID,81.4638,VALID,265.917,VALID,24.984,VALID,49,VALID,0,
2016-04-01, 09:03:04,VALID,918.304,VALID,0,VALID,80.5414,VALID,270,VALID,25.0426,VALID,108,VALID,0,
2016-04-01, 09:04:04,VALID,918.287,VALID,0,VALID,79.1234,VALID,274.62,VALID,25.0836,VALID,138,VALID,0,
2016-04-01, 09:05:04,VALID,918.319,VALID,0,VALID,77.5301,VALID,281.173,VALID,25.0055,VALID,138,VALID,0,
2016-04-01, 09:06:04,VALID,918.312,VALID,0,VALID,78.3077,VALID,288.909,VALID,24.8102,VALID,138,VALID,0,
2016-04-01, 09:07:04,VALID,918.326,VALID,0,VALID,78.8795,VALID,297.612,VALID,24.8102,VALID,138,VALID,0,
2016-04-01, 09:08:04,VALID,918.315,VALID,0,VALID,78.6203,VALID,304.381,VALID,24.9274,VALID,138,VALID,0,
2016-04-01, 09:09:04,VALID,918.326,VALID,0,VALID,77.9799,VALID,312.546,VALID,25.064,VALID,138,VALID,0,
2016-04-01, 09:10:04,VALID,918.288,VALID,0,VALID,78.6355,VALID,325.762,VALID,25.2203,VALID,138,VALID,0,
2016-04-01, 09:11:04,VALID,918.314,VALID,0,VALID,77.4539,VALID,359.498,VALID,25.3374,VALID,138,VALID,0,
2016-04-01, 09:12:04,VALID,918.327,VALID,0,VALID,78.7728,VALID,372.176,VALID,25.4741,VALID,138,VALID,0,
2016-04-01, 09:13:04,VALID,918.271,VALID,0,VALID,77.0956,VALID,533.983,VALID,25.4917,VALID,138,VALID,0,
2016-04-01, 09:14:04,VALID,918.277,VALID,0,VALID,75.3194,VALID,505.403,VALID,25.5913,VALID,181,VALID,0,
2016-04-01, 09:15:04,VALID,918.292,VALID,0,VALID,74.4503,VALID,497.882,VALID,25.7066,VALID,184,VALID,0,
2016-04-01, 09:16:04,VALID,918.26,VALID,0,VALID,73.1009,VALID,497.99,VALID,25.8257,VALID,199,VALID,0,
2016-04-01, 09:17:04,VALID,918.279,VALID,0,VALID,74.3131,VALID,411.285,VALID,25.6284,VALID,175,VALID,0,
2016-04-01, 09:18:04,VALID,918.297,VALID,0,VALID,74.4808,VALID,389.797,VALID,25.5523,VALID,167,VALID,0,
2016-04-01, 09:19:04,VALID,918.254,VALID,0,VALID,74.557,VALID,387.11,VALID,25.6089,VALID,171,VALID,0,
2016-04-01, 09:20:04,VALID,918.254,VALID,0,VALID,74.0081,VALID,384.854,VALID,25.687,VALID,208,VALID,0,
2016-04-01, 09:21:04,VALID,918.247,VALID,0,VALID,73.8557,VALID,390.871,VALID,25.6694,VALID,209,VALID,0,
2016-04-01, 09:22:04,VALID,918.226,VALID,0,VALID,73.4516,VALID,402.904,VALID,25.7261,VALID,174,VALID,0,
2016-04-01, 09:23:04,VALID,918.19,VALID,0,VALID,74.3054,VALID,421.384,VALID,25.7456,VALID,189,VALID,0,
2016-04-01, 09:24:04,VALID,918.218,VALID,0,VALID,74.2902,VALID,456.088,VALID,25.7847,VALID,189,VALID,0,
2016-04-01, 09:25:04,VALID,918.19,VALID,0,VALID,72.5216,VALID,416.979,VALID,25.8648,VALID,188,VALID,0,
2016-04-01, 09:26:04,VALID,918.16,VALID,0,VALID,73.7261,VALID,405.698,VALID,25.9019,VALID,200,VALID,0,
2016-04-01, 09:27:04,VALID,918.19,VALID,0,VALID,74.1149,VALID,389.474,VALID,25.8257,VALID,121,VALID,0,
2016-04-01, 09:28:04,VALID,918.194,VALID,0,VALID,76.2037,VALID,403.012,VALID,25.7847,VALID,115,VALID,0,
2016-04-01, 09:29:04,VALID,918.238,VALID,0,VALID,74.6942,VALID,420.417,VALID,25.9234,VALID,131,VALID,0,
2016-04-01, 09:30:04,VALID,918.225,VALID,0,VALID,74.0844,VALID,422.566,VALID,25.9019,VALID,209,VALID,0,
2016-04-01, 09:31:04,VALID,918.239,VALID,0,VALID,74.3054,VALID,456.84,VALID,25.9409,VALID,197,VALID,0,
2016-04-01, 09:32:04,VALID,918.235,VALID,0,VALID,75.1669,VALID,479.402,VALID,25.9624,VALID,165,VALID,0,
2016-04-01, 09:33:04,VALID,918.197,VALID,0,VALID,74.2826,VALID,499.386,VALID,25.9214,VALID,165,VALID,0,
2016-04-01, 09:34:04,VALID,918.19,VALID,0,VALID,73.1695,VALID,468.229,VALID,26.0386,VALID,167,VALID,0,
2016-04-01, 09:35:04,VALID,918.165,VALID,0,VALID,72.7579,VALID,485.527,VALID,25.9995,VALID,145,VALID,0,
2016-04-01, 09:36:04,VALID,918.172,VALID,0,VALID,71.6982,VALID,527.643,VALID,26.0171,VALID,205,VALID,0,
2016-04-01, 09:37:04,VALID,918.136,VALID,0,VALID,72.2395,VALID,504.651,VALID,26.0972,VALID,181,VALID,0,
2016-04-01, 09:38:04,VALID,918.149,VALID,0,VALID,72.9103,VALID,487.138,VALID,26.2339,VALID,170,VALID,0,
2016-04-01, 09:39:04,VALID,918.127,VALID,0,VALID,71.7973,VALID,480.907,VALID,26.3706,VALID,188,VALID,0,
2016-04-01, 09:40:04,VALID,918.125,VALID,0,VALID,71.5153,VALID,540.429,VALID,26.4683,VALID,214,VALID,0,
2016-04-01, 09:41:04,VALID,918.161,VALID,0,VALID,71.2179,VALID,537.743,VALID,26.4468,VALID,226,VALID,0,
2016-04-01, 09:42:04,VALID,918.13,VALID,0,VALID,72.6664,VALID,376.151,VALID,26.4858,VALID,174,VALID,0,
2016-04-01, 09:43:04,VALID,918.163,VALID,0,VALID,70.1202,VALID,345.531,VALID,26.4663,VALID,186,VALID,0,
2016-04-01, 09:44:04,VALID,918.172,VALID,0,VALID,71.2103,VALID,358.961,VALID,26.3902,VALID,190,VALID,0,
2016-04-01, 09:45:04,VALID,918.155,VALID,0,VALID,70.913,VALID,706.318,VALID,26.31,VALID,209,VALID,0,
2016-04-01, 09:46:04,VALID,918.155,VALID,0,VALID,70.1431,VALID,465.972,VALID,26.271,VALID,197,VALID,0.775391,
2016-04-01, 09:47:04,VALID,918.092,VALID,0,VALID,70.3489,VALID,496.271,VALID,26.2319,VALID,207,VALID,0.487109,
2016-04-01, 09:48:04,VALID,918.107,VALID,0,VALID,72.2547,VALID,437.823,VALID,26.2514,VALID,159,VALID,0,
2016-04-01, 09:49:04,VALID,918.072,VALID,0,VALID,72.0718,VALID,656.036,VALID,26.3491,VALID,154,VALID,0.00351562,
2016-04-01, 09:50:04,VALID,918.024,VALID,0,VALID,69.9677,VALID,679.78,VALID,26.3491,VALID,213,VALID,1.07383,
2016-04-01, 09:51:04,VALID,918.035,VALID,0,VALID,72.6893,VALID,722.649,VALID,26.4077,VALID,104,VALID,0.448828,
2016-04-01, 09:52:04,VALID,918.039,VALID,0,VALID,71.9041,VALID,787.544,VALID,26.5054,VALID,188,VALID,0.813281,
2016-04-01, 09:53:04,VALID,918.051,VALID,0,VALID,70.8139,VALID,747.898,VALID,26.603,VALID,162,VALID,0.442969,
2016-04-01, 09:54:04,VALID,918.038,VALID,0,VALID,70.1126,VALID,786.899,VALID,26.6421,VALID,107,VALID,1.3,
2016-04-01, 09:55:04,VALID,918.005,VALID,0,VALID,72.4301,VALID,888.753,VALID,26.6421,VALID,125,VALID,0.0078125,
2016-04-01, 09:56:04,VALID,918.018,VALID,0,VALID,69.2282,VALID,671.507,VALID,26.7593,VALID,130,VALID,0.424219,
2016-04-01, 09:57:04,VALID,918.018,VALID,0,VALID,70.7834,VALID,569.223,VALID,26.7788,VALID,119,VALID,0,
2016-04-01, 09:58:04,VALID,918.012,VALID,0,VALID,67.4444,VALID,679.243,VALID,26.8981,VALID,188,VALID,0.585938,
2016-04-01, 09:59:04,VALID,918.003,VALID,0,VALID,70.0363,VALID,617.894,VALID,26.9937,VALID,129,VALID,0.468359,
2016-04-01, 10:00:04,VALID,918.026,VALID,0,VALID,68.1,VALID,591.571,VALID,26.9937,VALID,160,VALID,0,
2016-04-01, 10:01:04,VALID,918.013,VALID,0,VALID,67.7036,VALID,492.725,VALID,27.1305,VALID,160,VALID,0,
2016-04-01, 10:02:04,VALID,918.001,VALID,0,VALID,66.9031,VALID,492.725,VALID,27.1695,VALID,95,VALID,0.792969,
2016-04-01, 10:03:04,VALID,917.978,VALID,0,VALID,68.0542,VALID,464.038,VALID,26.8159,VALID,106,VALID,0.396875,
2016-04-01, 10:04:04,VALID,917.924,VALID,0,VALID,69.6247,VALID,435.781,VALID,26.564,VALID,63,VALID,1.2125,
2016-04-01, 10:05:04,VALID,917.925,VALID,0,VALID,71.7287,VALID,462.104,VALID,26.5054,VALID,99,VALID,0.708984,
2016-04-01, 10:06:04,VALID,917.897,VALID,0,VALID,70.3794,VALID,478.113,VALID,26.4292,VALID,129,VALID,0.298438,
2016-04-01, 10:07:04,VALID,917.876,VALID,0,VALID,69.922,VALID,425.36,VALID,26.3491,VALID,111,VALID,0,
2016-04-01, 10:08:04,VALID,917.827,VALID,0,VALID,69.6018,VALID,423.748,VALID,26.4292,VALID,191,VALID,0,
2016-04-01, 10:09:04,VALID,917.805,VALID,0,VALID,69.678,VALID,466.939,VALID,26.5054,VALID,158,VALID,0,
2016-04-01, 10:10:04,VALID,917.814,VALID,0,VALID,69.4188,VALID,487.138,VALID,26.3316,VALID,176,VALID,0.135547,
2016-04-01, 10:11:04,VALID,917.792,VALID,0,VALID,70.326,VALID,782.064,VALID,26.31,VALID,186,VALID,0,
2016-04-01, 10:12:04,VALID,917.786,VALID,0,VALID,69.9372,VALID,513.891,VALID,26.4878,VALID,143,VALID,0.465625,
2016-04-01, 10:13:04,VALID,917.753,VALID,0,VALID,71.8659,VALID,640.134,VALID,26.5269,VALID,111,VALID,0,
2016-04-01, 10:14:04,VALID,917.754,VALID,0,VALID,71.2713,VALID,417.194,VALID,26.5835,VALID,140,VALID,1.22578,
2016-04-01, 10:15:04,VALID,917.774,VALID,0,VALID,71.9574,VALID,383.78,VALID,26.6616,VALID,132,VALID,0,
2016-04-01, 10:16:04,VALID,917.758,VALID,0,VALID,67.6959,VALID,396.458,VALID,26.7007,VALID,175,VALID,0.0105469,
2016-04-01, 10:17:04,VALID,917.767,VALID,0,VALID,68.1838,VALID,407.739,VALID,26.5249,VALID,144,VALID,0.843359,
2016-04-01, 10:18:04,VALID,917.742,VALID,0,VALID,70.2803,VALID,478.221,VALID,26.4468,VALID,194,VALID,0.488281,
2016-04-01, 10:19:04,VALID,917.737,VALID,0,VALID,69.0681,VALID,481.659,VALID,26.5054,VALID,204,VALID,0.164063,
2016-04-01, 10:20:04,VALID,917.71,VALID,0,VALID,69.6856,VALID,538.925,VALID,26.5835,VALID,191,VALID,0.0203125,
2016-04-01, 10:21:04,VALID,917.739,VALID,0,VALID,69.4036,VALID,640.994,VALID,26.7418,VALID,178,VALID,0,
2016-04-01, 10:22:04,VALID,917.731,VALID,0,VALID,67.3834,VALID,761.865,VALID,26.6616,VALID,144,VALID,1.3418,
2016-04-01, 10:23:04,VALID,917.756,VALID,0,VALID,69.8,VALID,657.11,VALID,26.5464,VALID,171,VALID,0.264062,
2016-04-01, 10:24:04,VALID,917.762,VALID,0,VALID,68.9995,VALID,665.598,VALID,26.566,VALID,133,VALID,0.834375,
2016-04-01, 10:25:04,VALID,917.755,VALID,0,VALID,70.448,VALID,704.814,VALID,26.4468,VALID,182,VALID,1.32852,
2016-04-01, 10:26:04,VALID,917.77,VALID,0,VALID,69.1901,VALID,669.036,VALID,26.4077,VALID,125,VALID,0.451953,
2016-04-01, 10:27:04,VALID,917.748,VALID,0,VALID,67.1166,VALID,894.662,VALID,26.4878,VALID,190,VALID,0.91875,
2016-04-01, 10:28:04,VALID,917.777,VALID,0,VALID,68.7022,VALID,667.424,VALID,26.6421,VALID,186,VALID,0.742578,
2016-04-01, 10:29:04,VALID,917.792,VALID,0,VALID,68.1762,VALID,585.662,VALID,26.859,VALID,183,VALID,0.404687,
2016-04-01, 10:30:04,VALID,917.739,VALID,0,VALID,67.9094,VALID,597.373,VALID,26.9567,VALID,182,VALID,1.17461,
2016-04-01, 10:31:04,VALID,917.801,VALID,0,VALID,69.0529,VALID,705.781,VALID,27.0935,VALID,143,VALID,0,
2016-04-01, 10:32:04,VALID,917.803,VALID,0,VALID,66.3008,VALID,548.057,VALID,27.2302,VALID,138,VALID,1.27695,
2016-04-01, 10:33:04,VALID,917.772,VALID,0,VALID,68.5116,VALID,596.406,VALID,26.9937,VALID,124,VALID,0.103906,
2016-04-01, 10:34:04,VALID,917.793,VALID,0,VALID,69.9906,VALID,619.506,VALID,27.0328,VALID,133,VALID,0.00078125,
2016-04-01, 10:35:04,VALID,917.763,VALID,0,VALID,69.5637,VALID,742.311,VALID,27.1109,VALID,170,VALID,0.192578,
2016-04-01, 10:36:04,VALID,917.775,VALID,0,VALID,68.809,VALID,887.571,VALID,27.2086,VALID,157,VALID,0.341797,
2016-04-01, 10:37:04,VALID,917.767,VALID,0,VALID,68.5726,VALID,714.913,VALID,27.1695,VALID,156,VALID,1.06445,
2016-04-01, 10:38:04,VALID,917.779,VALID,0,VALID,64.5703,VALID,614.886,VALID,27.1305,VALID,90,VALID,2.55508,
2016-04-01, 10:39:04,VALID,917.748,VALID,0,VALID,69.7543,VALID,534.412,VALID,27.0328,VALID,145,VALID,0,
2016-04-01, 10:40:04,VALID,917.755,VALID,0,VALID,68.9843,VALID,493.477,VALID,26.9958,VALID,153,VALID,0.439063,
2016-04-01, 10:41:04,VALID,917.756,VALID,0,VALID,69.0681,VALID,486.171,VALID,26.9156,VALID,149,VALID,0,
2016-04-01, 10:42:04,VALID,917.762,VALID,0,VALID,68.4888,VALID,553.859,VALID,26.9742,VALID,136,VALID,0.416016,
2016-04-01, 10:43:04,VALID,917.783,VALID,0,VALID,66.926,VALID,641.424,VALID,26.7593,VALID,134,VALID,2.61992,
2016-04-01, 10:44:04,VALID,917.736,VALID,0,VALID,67.5663,VALID,714.913,VALID,26.5835,VALID,121,VALID,2.45391,
2016-04-01, 10:45:04,VALID,917.697,VALID,0,VALID,68.4659,VALID,814.726,VALID,26.5835,VALID,123,VALID,1.30625,
2016-04-01, 10:46:04,VALID,917.642,VALID,0,VALID,69.3197,VALID,783.461,VALID,26.7984,VALID,69,VALID,2.30664,
2016-04-01, 10:47:04,VALID,917.685,VALID,0,VALID,68.3211,VALID,826.545,VALID,26.8374,VALID,80,VALID,2.03828,
2016-04-01, 10:48:04,VALID,917.643,VALID,0,VALID,68.1991,VALID,827.189,VALID,26.859,VALID,81,VALID,0.408594,
2016-04-01, 10:49:04,VALID,917.694,VALID,0,VALID,70.7453,VALID,826.76,VALID,27.0328,VALID,112,VALID,1.31914,
2016-04-01, 10:50:04,VALID,917.652,VALID,0,VALID,65.5766,VALID,822.462,VALID,27.1891,VALID,111,VALID,0.641797,
2016-04-01, 10:51:04,VALID,917.644,VALID,0,VALID,68.9004,VALID,828.479,VALID,27.3454,VALID,80,VALID,0.280469,
2016-04-01, 10:52:04,VALID,917.693,VALID,0,VALID,65.6376,VALID,824.396,VALID,27.4431,VALID,144,VALID,1.09883,
2016-04-01, 10:53:04,VALID,917.676,VALID,0,VALID,63.4497,VALID,801.618,VALID,27.5819,VALID,168,VALID,1.4207,
2016-04-01, 10:54:04,VALID,917.66,VALID,0,VALID,64.0672,VALID,793.345,VALID,27.5017,VALID,133,VALID,1.24219,
2016-04-01, 10:55:04,VALID,917.608,VALID,0,VALID,66.5905,VALID,812.792,VALID,27.5798,VALID,185,VALID,0.682422,
2016-04-01, 10:56:04,VALID,917.636,VALID,0,VALID,64.2959,VALID,835.462,VALID,27.6775,VALID,158,VALID,0.113672,
2016-04-01, 10:57:04,VALID,917.652,VALID,0,VALID,64.5932,VALID,854.479,VALID,27.6385,VALID,191,VALID,0.973047,
2016-04-01, 10:58:04,VALID,917.623,VALID,0,VALID,66.7735,VALID,816.768,VALID,27.5973,VALID,122,VALID,0,
2016-04-01, 10:59:04,VALID,917.629,VALID,0,VALID,63.7927,VALID,803.875,VALID,27.4821,VALID,141,VALID,1.4418,
2016-04-01, 11:00:04,VALID,917.591,VALID,0,VALID,66.8192,VALID,792.056,VALID,27.3433,VALID,99,VALID,3.14414,
2016-04-01, 11:01:04,VALID,917.618,VALID,0,VALID,68.1533,VALID,822.569,VALID,27.3649,VALID,174,VALID,0.685156,
2016-04-01, 11:02:04,VALID,917.617,VALID,0,VALID,67.0251,VALID,832.132,VALID,27.5408,VALID,86,VALID,0.313672,
2016-04-01, 11:03:04,VALID,917.61,VALID,0,VALID,66.0188,VALID,830.09,VALID,27.5994,VALID,158,VALID,1.34883,
2016-04-01, 11:04:04,VALID,917.634,VALID,0,VALID,64.0062,VALID,828.264,VALID,27.5798,VALID,156,VALID,1.13945,
2016-04-01, 11:05:04,VALID,917.558,VALID,0,VALID,64.9058,VALID,817.735,VALID,27.6385,VALID,191,VALID,0.0203125,
2016-04-01, 11:06:04,VALID,917.561,VALID,0,VALID,64.9972,VALID,743.6,VALID,27.7752,VALID,159,VALID,2.08516,
2016-04-01, 11:07:04,VALID,917.541,VALID,0,VALID,63.1829,VALID,790.122,VALID,27.5191,VALID,140,VALID,2.42188,
2016-04-01, 11:08:04,VALID,917.541,VALID,0,VALID,66.9336,VALID,815.693,VALID,27.404,VALID,17,VALID,2.81055,
2016-04-01, 11:09:04,VALID,917.535,VALID,0,VALID,66.926,VALID,831.165,VALID,27.4626,VALID,170,VALID,0.375391,
2016-04-01, 11:10:04,VALID,917.536,VALID,0,VALID,64.799,VALID,822.784,VALID,27.3063,VALID,139,VALID,2.35117,
2016-04-01, 11:11:04,VALID,917.503,VALID,0,VALID,66.1103,VALID,791.519,VALID,27.2086,VALID,160,VALID,0.426172,
2016-04-01, 11:12:04,VALID,917.464,VALID,0,VALID,65.2869,VALID,908.415,VALID,27.3042,VALID,153,VALID,0,
2016-04-01, 11:13:04,VALID,917.454,VALID,0,VALID,65.813,VALID,383.028,VALID,27.5212,VALID,150,VALID,0.8625,